This is the latest recevied weather packets stored in our database for station/object N5COP-13. If no packets are shown the sender has not sent any weather packets the latest 10 day(s).
| Time | Temp. | Humidity | Pressure | Rain* | Wind** | Luminosity | Snow |
|---|---|---|---|---|---|---|---|
| 1777390112 | 20° C | 27% | 1015.5 hPa | 0 mm | - | 564 W/m² | - |
| 1777389808 | 20° C | 26% | 1015.2 hPa | 0 mm | - | 549 W/m² | - |
| 1777389505 | 20.56° C | 23% | 1015.4 hPa | 0 mm | - | 530 W/m² | - |
| 1777389202 | 20° C | 19% | 1015.3 hPa | 0 mm | - | 515 W/m² | - |
| 1777388900 | 20° C | 19% | 1015.2 hPa | 0 mm | - | 500 W/m² | - |
| 1777388596 | 19.44° C | 20% | 1015.3 hPa | 0 mm | - | 484 W/m² | - |
| 1777388293 | 18.89° C | 20% | 1015.3 hPa | 0 mm | - | 470 W/m² | - |
| 1777387987 | 18.89° C | 21% | 1015.2 hPa | 0 mm | - | 454 W/m² | - |
| 1777387684 | 18.89° C | 20% | 1015.1 hPa | 0 mm | - | 435 W/m² | - |
| 1777387380 | 18.89° C | 20% | 1014.7 hPa | 0 mm | - | 417 W/m² | - |
| 1777387075 | 18.33° C | 20% | 1014.9 hPa | 0 mm | - | 399 W/m² | - |
| 1777386771 | 18.33° C | 21% | 1014.9 hPa | 0 mm | - | 381 W/m² | - |
| 1777386468 | 18.33° C | 23% | 1014.6 hPa | 0 mm | - | 365 W/m² | - |
| 1777386165 | 17.78° C | 26% | 1014.7 hPa | 0 mm | - | 349 W/m² | - |
| 1777385862 | 17.78° C | 28% | 1014.7 hPa | 0 mm | - | 327 W/m² | - |
| 1777385559 | 16.67° C | 32% | 1014.6 hPa | 0 mm | - | 314 W/m² | - |
| 1777385256 | 16.11° C | 35% | 1014.6 hPa | 0 mm | - | 295 W/m² | - |
| 1777384951 | 15.56° C | 40% | 1014.6 hPa | 0 mm | - | 279 W/m² | - |
| 1777384650 | 15° C | 43% | 1014.5 hPa | 0 mm | - | 262 W/m² | - |
| 1777384343 | 15.56° C | 49% | 1014.5 hPa | 0 mm | - | 248 W/m² | - |
| 1777384039 | 14.44° C | 53% | 1014.5 hPa | 0 mm | - | 231 W/m² | - |
| 1777383735 | 13.89° C | 58% | 1014.5 hPa | 0 mm | - | 216 W/m² | - |
| 1777383432 | 13.89° C | 62% | 1014.3 hPa | 0 mm | - | 199 W/m² | - |
| 1777383128 | 13.33° C | 64% | 1014.3 hPa | 0 mm | - | 182 W/m² | - |
| 1777382825 | 12.78° C | 65% | 1014.2 hPa | 0 mm | - | 167 W/m² | - |
* Rain latest hour (hover to see other rain measurements)
** Current wind speed in m/s (hover to see current wind gust speed)